Regional Weather Roundup
Issued by NWS

Home | Current Version | Previous Version | Graphics & Text | Print | Product List | Glossary Off
Versions: 1 2 3 4 5 6 7 8 9 10 11 12 13 14 15 16 17 18 19 20 21 22 23 24 25 26 27 28 29 30 31 32 33 34 35 36 37 38 39 40 41 42 43 44 45 46 47 48 49 50

000
ASUS43 KDMX 230507
RWRIA

WEATHER ROUNDUP FOR IOWA
NATIONAL WEATHER SERVICE DES MOINES IA
1200 AM CDT WED JUL 23 2014

NOTE: "FAIR" INDICATES FEW OR NO CLOUDS BELOW 12,000 FEET WITH NO
SIGNIFICANT WEATHER AND/OR OBSTRUCTIONS TO VISIBILITY.

* - THESE STATIONS ARE NOT NWS STATIONS...THUS NOT UNDER NWS
QUALITY CONTROL.  THEY ALSO DO NOT REPORT WEATHER SUCH
AS PRECIPITATION OR FOG.

IAZ001>003-012>014-020>022-031>034-043>046-230600-
   NORTHWEST IOWA

CITY           SKY/WX    TMP DP  RH WIND       PRES   REMARKS
CARROLL *      CLEAR     66  63  88 N7        30.17R
CHEROKEE *     CLEAR     66  61  82 N8        30.20R
DENISON *      CLEAR     70  61  73 NE8       30.16R
LE MARS *      CLEAR     64  61  88 N5        30.21R
ORANGE CITY *  CLEAR     70  55  60 N8        30.22R
SHELDON *      CLEAR     61  57  88 N6        30.21R
SIOUX CITY     CLEAR     73  59  61 N9        30.20R
SPENCER        CLEAR     63  57  81 N9        30.21R
STORM LAKE *   CLEAR     66  61  82 N7        30.21R
$$

IAZ055>058-069>071-079>083-090>094-230600-
   SOUTHWEST IOWA

CITY           SKY/WX    TMP DP  RH WIND       PRES   REMARKS
ATLANTIC *     CLEAR     70  66  88 N8        30.15R
AUDUBON *      CLEAR     72  66  83 N7        30.18R
CLARINDA *     CLEAR     70  70 100 CALM      30.15R
COUNCIL BLFS *   N/A     72  70  94 N7        30.16R
CRESTON *      CLEAR     72  68  88 N13       30.15R
HARLAN  *      CLEAR     68  66  94 N6        30.20R
LAMONI         CLEAR     74  68  81 N9        30.12R
RED OAK *      CLEAR     70  68  94 N6        30.15R
SHENANDOAH *   CLEAR     72  70  94 N7        30.15R
$$

IAZ047>049-059>061-072>074-084-230600-
   CENTRAL IOWA

CITY           SKY/WX    TMP DP  RH WIND       PRES   REMARKS
AMES           CLEAR     71  63  75 N10       30.13R
ANKENY *       CLEAR     73  66  78 N8        30.13R
CHARITON *     CLEAR     73  68  83 N6        30.12R
DES MOINES     CLEAR     76  64  66 N12       30.12R
GRINNELL*      CLEAR     70  66  88 NW6       30.11R
KNOXVILLE *    CLEAR     75  66  73 N9        30.10R
MARSHALLTOWN   CLEAR     69  65  86 NW8       30.11R
PELLA *        CLEAR     73  67  84 N6        30.11R
PERRY *          N/A     70  64  83 N7        30.15R
$$

IAZ004>006-015-016-023>025-035-036-230600-
   NORTH CENTRAL IOWA

CITY           SKY/WX    TMP DP  RH WIND       PRES   REMARKS
ALGONA *       CLEAR     66  59  77 N7        30.18R
CLARION *      CLEAR     64  61  88 N5        30.15R
ESTHERVILLE    CLEAR     63  56  78 N9        30.19R
FORT DODGE *   CLEAR     66  59  77 N5        30.16S
MASON CITY     CLEAR     64  60  87 N9        30.17R
FOREST CITY *  CLEAR     68  57  68 N9        30.16R
IOWA FALLS *     N/A     66  61  82 NW5       30.15R
$$

IAZ007>011-017>019-026>030-037>042-050>054-066-230600-
   NORTHEAST IOWA

CITY           SKY/WX    TMP DP  RH WIND       PRES   REMARKS
CEDAR RAPIDS   CLEAR     74  66  76 N10       30.07R
CHARLES CITY * CLEAR     66  63  88 N6        30.14R
DECORAH *      CLEAR     70  63  78 VRB6      30.10R
DUBUQUE        CLEAR     73  66  78 N12       30.06R
MONTICELLO *   CLEAR     72  68  88 N7        30.06R
OELWEIN *      CLEAR     66  64  94 NW6       30.12R
WATERLOO       CLEAR     68  64  87 NW6       30.10R
$$

IAZ064-065-067-068-078-230600-
   EAST CENTRAL IOWA

CITY           SKY/WX    TMP DP  RH WIND       PRES   REMARKS
DAVENPORT      PTCLDY    73  69  87 NW6       30.04R
IOWA CITY      CLEAR     78  68  71 N12       30.06R HX  80
MT. PLEASANT * PTCLDY    77  70  78 NW7       30.05R
MUSCATINE *    CLEAR     77  70  78 NW7       30.04R
QUAD CITIES    CLEAR     80  69  69 N7        30.02R HX  83
$$

IAZ062-063-075>077-085>089-095>099-230600-
   SOUTHEAST IOWA

CITY           SKY/WX    TMP DP  RH WIND       PRES   REMARKS
BURLINGTON     PTCLDY    79  75  87 N6        30.02R HX  83
FAIRFIELD *    CLEAR     73  70  88 N9        30.06S
FORT MADISON * CLEAR     79  75  89 N3        30.04R FOG     HX  82
KEOKUK *       MOCLDY    77  77 100 CALM      30.02R FOG
OSKALOOSA *      N/A     72  70  94 N6        30.09R
CENTERVILLE *  CLEAR     73  72  94 NW6       30.11R
OTTUMWA        CLEAR     73  69  87 N9        30.08R
WASHINGTON *   CLEAR     75  72  88 N10       30.06R
$$

ABBREVIATIONS USED IN REMARKS
   TC - TEMPERATURES IN CELSIUS
  WCI - WIND CHILL INDEX
   HX - HEAT INDEX
  VSB - VISIBILITY
$$




USA.gov is the U.S. government's official web portal to all federal, state and local government web resources and services.